EA1AML-1 Vega de Espinareda ES current weather conditions

sailwx.info

Wind from 305 at 0 knots gusting 9

Air temperature 31.7° C
Dewpoint 16.8° C

Last reported at 2014-Sep-01 13:50 UTC.
Time now 2014-Sep-01 14:07 UTC

Location: N 42°43' W 006°39'.
View on Google Maps.

See reports from other nearby stations

  
Tides and Currents Weather Stations Pressure Air Temp Water Temp Dewpoint Dewpoint Depression Visibility Wind Speed Wind Dir Waves Ship Positions
date/time (UTC)wind fromknots sea level pressurealtimeterstation pressurevisibilityair tempwater tempwave heightnotes
2014-Sep-01 13:50 305 0 gusting 9 31.7
2014-Sep-01 13:32 342 2 gusting 7 32.2
2014-Sep-01 13:26 010 4 gusting 7 32.2
2014-Sep-01 13:20 344 0 gusting 6 32.2
2014-Sep-01 13:08 274 2 gusting 6 31.7
2014-Sep-01 13:02 276 1 gusting 6 31.7
2014-Sep-01 12:56 312 0 gusting 6 31.7
2014-Sep-01 12:50 324 31.7
2014-Sep-01 12:44 320 31.7
2014-Sep-01 12:32 146 1 gusting 3 31.1
2014-Sep-01 12:26 124 30.6
2014-Sep-01 12:20 342 1 gusting 5 30.6
2014-Sep-01 12:08 039 1 gusting 5 30.0
2014-Sep-01 11:44 355 2 gusting 5 29.4
2014-Sep-01 11:32 050 1 gusting 5 28.9
2014-Sep-01 11:26 054 1 gusting 5 28.3
2014-Sep-01 11:14 070 28.3
2014-Sep-01 11:08 049 0 gusting 5 27.8
2014-Sep-01 10:56 047 2 gusting 5 27.8
2014-Sep-01 10:38 077 1 gusting 2 26.7
2014-Sep-01 10:26 088 26.1
2014-Sep-01 10:20 058 25.6
2014-Sep-01 10:08 013 25.0
2014-Sep-01 10:02 356 24.4
2014-Sep-01 09:56 318 24.4
2014-Sep-01 09:38 012 22.8
2014-Sep-01 09:32 001 22.2
2014-Sep-01 09:20 346 21.1
2014-Sep-01 09:08 001 20.6
2014-Sep-01 09:02 041 20.0
2014-Sep-01 08:56 032 20.0
2014-Sep-01 08:50 004 19.4
2014-Sep-01 08:38 111 18.3
2014-Sep-01 08:32 027 17.8
2014-Sep-01 08:26 105 17.8
2014-Sep-01 08:08 148 16.1
2014-Sep-01 08:02 150 15.6
2014-Sep-01 07:50 140 15.6
2014-Sep-01 07:44 182 15.0
2014-Sep-01 07:39 169 14.4
2014-Sep-01 07:35 145 13.9
2014-Sep-01 07:29 133 13.3
2014-Sep-01 07:23 124 12.8
2014-Sep-01 07:17 142 12.8
2014-Sep-01 07:11 172 0 gusting 2 12.2
2014-Sep-01 07:05 162 0 gusting 2 11.7
2014-Sep-01 06:59 148 11.7
2014-Sep-01 06:47 154 11.7
2014-Sep-01 06:41 159 0 gusting 2 11.1
2014-Sep-01 06:35 189 10.6
2014-Sep-01 06:29 184 10.6
2014-Sep-01 06:23 147 10.6
2014-Sep-01 06:17 149 10.6
2014-Sep-01 06:05 199 0 gusting 3 10.6
2014-Sep-01 05:59 197 10.6
2014-Sep-01 05:53 168 0 gusting 2 10.6
2014-Sep-01 05:29 145 10.6
2014-Sep-01 05:11 181 11.1
2014-Sep-01 05:05 176 1 gusting 2 11.1
2014-Sep-01 04:53 186 11.1
2014-Sep-01 04:47 178 0 gusting 2 11.1
2014-Sep-01 04:41 159 0 gusting 2 11.1
2014-Sep-01 04:35 147 11.1
2014-Sep-01 04:29 163 11.1
2014-Sep-01 04:17 143 11.7
2014-Sep-01 04:11 165 0 gusting 2 11.7
2014-Sep-01 04:05 090 12.2
2014-Sep-01 03:59 149 12.2
2014-Sep-01 03:47 169 1 gusting 2 12.2
2014-Sep-01 03:41 183 12.2
2014-Sep-01 03:35 182 0 gusting 2 12.2
2014-Sep-01 03:29 198 12.2
2014-Sep-01 03:17 188 0 gusting 5 12.2
2014-Sep-01 03:11 202 12.8
2014-Sep-01 02:59 191 2 gusting 5 12.2
2014-Sep-01 02:47 001 12.8
2014-Sep-01 02:41 195 12.8
2014-Sep-01 02:29 175 0 gusting 2 13.3
2014-Sep-01 02:23 007 13.3
2014-Sep-01 02:17 193 13.3
2014-Sep-01 02:05 164 13.9
2014-Sep-01 01:59 185 13.9
2014-Sep-01 01:53 151 13.9
2014-Sep-01 01:47 178 13.9
2014-Sep-01 01:41 187 2 gusting 4 14.4
2014-Sep-01 01:35 177 1 gusting 2 14.4
2014-Sep-01 01:29 186 14.4
2014-Sep-01 01:23 165 14.4
2014-Sep-01 01:17 172 14.4
2014-Sep-01 00:59 191 15.0
2014-Sep-01 00:53 189 2 gusting 4 15.0
2014-Sep-01 00:47 186 2 gusting 4 15.0
2014-Sep-01 00:41 177 2 gusting 4 15.0
2014-Sep-01 00:35 167 2 gusting 3 15.0
2014-Sep-01 00:23 206 1 gusting 4 15.6
2014-Sep-01 00:11 186 15.6
2014-Sep-01 00:05 181 2 gusting 3 15.6
2014-Aug-31 23:59 209 15.6
2014-Aug-31 23:41 215 16.7
2014-Aug-31 23:35 211 1 gusting 5 16.7
2014-Aug-31 23:29 190 2 gusting 5 16.1
2014-Aug-31 23:17 198 16.1
2014-Aug-31 23:05 212 17.2
2014-Aug-31 22:59 232 17.2
2014-Aug-31 22:53 215 17.2
2014-Aug-31 22:35 213 1 gusting 4 17.2
2014-Aug-31 22:29 191 0 gusting 5 17.8
2014-Aug-31 22:23 186 3 gusting 6 17.8
2014-Aug-31 22:17 194 0 gusting 4 18.3
2014-Aug-31 22:11 228 18.9
2014-Aug-31 22:05 216 0 gusting 4 18.9
2014-Aug-31 21:47 200 1 gusting 2 20.0
2014-Aug-31 21:41 177 0 gusting 2 20.6
2014-Aug-31 21:35 190 0 gusting 2 21.1
2014-Aug-31 21:29 202 21.1
2014-Aug-31 21:23 172 0 gusting 2 21.1
2014-Aug-31 21:17 213 0 gusting 3 21.1
2014-Aug-31 21:11 226 1 gusting 3 21.7
2014-Aug-31 21:05 211 0 gusting 4 21.7
2014-Aug-31 20:59 208 1 gusting 4 21.7
2014-Aug-31 20:41 211 21.7
2014-Aug-31 20:35 211 2 gusting 4 21.7
2014-Aug-31 20:29 208 2 gusting 2 22.2
2014-Aug-31 20:05 179 24.4
2014-Aug-31 19:59 222 24.4
2014-Aug-31 19:41 036 25.6
2014-Aug-31 19:35 033 0 gusting 2 25.6
2014-Aug-31 19:29 132 26.1
2014-Aug-31 19:23 118 26.1
2014-Aug-31 19:11 123 1 gusting 5 26.7
2014-Aug-31 19:05 126 2 gusting 6 27.2
2014-Aug-31 18:41 167 2 gusting 6 28.3
2014-Aug-31 18:35 155 3 gusting 6 28.3
2014-Aug-31 18:05 156 2 gusting 6 29.4
2014-Aug-31 17:59 137 2 gusting 8 29.4
2014-Aug-31 17:53 121 4 gusting 8 30.0
2014-Aug-31 17:41 099 2 gusting 7 30.0
2014-Aug-31 17:35 087 2 gusting 7 30.0
2014-Aug-31 17:29 074 3 gusting 9 30.6
2014-Aug-31 17:23 069 2 gusting 10 30.6
2014-Aug-31 17:17 066 6 gusting 13 30.6
2014-Aug-31 17:11 073 7 gusting 11 30.6
2014-Aug-31 17:05 097 4 gusting 9 30.6
2014-Aug-31 16:53 098 3 gusting 9 31.1
2014-Aug-31 16:41 086 5 gusting 8 31.7
2014-Aug-31 16:35 049 0 gusting 10 31.7
2014-Aug-31 16:17 018 5 gusting 10 31.7
2014-Aug-31 16:11 330 3 gusting 9 32.2
2014-Aug-31 16:05 317 6 gusting 9 32.8
2014-Aug-31 15:41 055 32.2
2014-Aug-31 15:35 050 32.2
2014-Aug-31 15:29 017 2 gusting 6 32.2
2014-Aug-31 15:23 355 2 gusting 6 32.2
2014-Aug-31 15:17 349 2 gusting 10 32.2
2014-Aug-31 15:11 002 0 gusting 10 32.2
2014-Aug-31 15:05 350 2 gusting 6 32.2
2014-Aug-31 14:59 304 4 gusting 6 32.8
2014-Aug-31 14:47 281 32.2
2014-Aug-31 14:41 270 0 gusting 5 32.2
2014-Aug-31 14:35 336 2 gusting 5 32.2
2014-Aug-31 14:29 340 0 gusting 6 31.7
2014-Aug-31 14:23 339 1 gusting 7 31.7
2014-Aug-31 14:05 338 1 gusting 5 31.7
2014-Aug-31 13:59 058 1 gusting 5 31.7
2014-Aug-31 13:47 295 1 gusting 6 31.1
2014-Aug-31 13:41 340 0 gusting 5 31.1
2014-Aug-31 13:35 342 31.1
2014-Aug-31 13:29 305 2 gusting 7 31.1
2014-Aug-31 13:17 359 3 gusting 8 31.1
2014-Aug-31 13:11 354 3 gusting 7 30.6
2014-Aug-31 13:05 352 4 gusting 7 30.6
2014-Aug-31 12:59 018 2 gusting 6 30.6
2014-Aug-31 12:47 359 1 gusting 7 30.0
2014-Aug-31 12:41 008 4 gusting 7 30.0
2014-Aug-31 12:29 012 29.4
2014-Aug-31 12:23 359 2 gusting 6 29.4
2014-Aug-31 12:17 020 0 gusting 6 29.4
2014-Aug-31 12:11 010 1 gusting 3 28.9
2014-Aug-31 12:05 003 1 gusting 6 28.3
2014-Aug-31 11:53 358 1 gusting 6 28.3
2014-Aug-31 11:47 005 2 gusting 7 28.3
2014-Aug-31 11:41 008 1 gusting 7 27.8
2014-Aug-31 11:35 011 1 gusting 8 27.8
2014-Aug-31 11:29 008 3 gusting 8 27.2
2014-Aug-31 11:23 356 3 gusting 7 27.2
2014-Aug-31 11:05 026 2 gusting 5 26.1
2014-Aug-31 10:59 354 2 gusting 6 26.1
2014-Aug-31 10:53 345 3 gusting 6 25.6
2014-Aug-31 10:47 001 4 gusting 6 25.6
2014-Aug-31 10:41 355 2 gusting 5 25.0
2014-Aug-31 10:35 336 1 gusting 5 25.0
2014-Aug-31 10:29 312 0 gusting 5 24.4
2014-Aug-31 10:23 290 3 gusting 5 24.4
2014-Aug-31 10:17 296 2 gusting 5 23.9
2014-Aug-31 10:11 328 2 gusting 3 23.9
2014-Aug-31 10:05 331 23.3
2014-Aug-31 09:59 291 23.3
2014-Aug-31 09:53 321 22.8
2014-Aug-31 09:41 358 21.7
2014-Aug-31 09:35 001 21.7
2014-Aug-31 09:29 001 21.1
2014-Aug-31 09:23 001 20.6
2014-Aug-31 09:11 045 20.0
2014-Aug-31 09:05 19.4
2014-Aug-31 08:59 314 18.9
2014-Aug-31 08:53 314 18.9
2014-Aug-31 08:47 045 18.3
2014-Aug-31 08:41 046 17.8
2014-Aug-31 08:35 045 17.2
2014-Aug-31 08:29 034 16.7
2014-Aug-31 08:23 090 16.7
2014-Aug-31 08:17 045 16.1
2014-Aug-31 08:11 045 15.6
2014-Aug-31 07:59 14.4
2014-Aug-31 07:53 14.4
2014-Aug-31 07:41 13.3
2014-Aug-31 07:35 12.8
2014-Aug-31 07:29 12.8
2014-Aug-31 07:23 12.8
2014-Aug-31 07:17 135 12.2
2014-Aug-31 07:11 135 12.2
2014-Aug-31 07:05 125 11.7
2014-Aug-31 06:59 113 11.7
2014-Aug-31 06:53 107 11.7
2014-Aug-31 06:47 135 11.7
2014-Aug-31 06:41 11.1
2014-Aug-31 06:35 11.1
2014-Aug-31 06:29 11.1
2014-Aug-31 06:17 181 11.1
2014-Aug-31 06:11 205 11.1
2014-Aug-31 06:05 109 11.1
2014-Aug-31 05:59 109 11.1
2014-Aug-31 05:53 135 11.1
2014-Aug-31 05:47 123 11.1
2014-Aug-31 05:41 123 11.7
2014-Aug-31 05:29 11.7
2014-Aug-31 05:23 177 11.7
2014-Aug-31 05:17 163 11.7
2014-Aug-31 05:11 131 11.7
2014-Aug-31 05:05 135 11.7
2014-Aug-31 04:59 122 11.7
2014-Aug-31 04:53 201 11.7
2014-Aug-31 04:47 215 11.7
2014-Aug-31 04:35 188 12.2
2014-Aug-31 04:29 176 12.2
2014-Aug-31 04:23 168 12.2
2014-Aug-31 04:17 170 12.2
2014-Aug-31 03:59 177 12.2
2014-Aug-31 03:53 135 12.2
2014-Aug-31 03:47 154 12.2
2014-Aug-31 03:41 210 12.2
2014-Aug-31 03:35 211 12.2
2014-Aug-31 03:29 199 12.8
2014-Aug-31 03:23 161 12.8
2014-Aug-31 03:17 171 12.8
2014-Aug-31 03:11 183 12.8
2014-Aug-31 02:59 192 0 gusting 2 12.8
2014-Aug-31 02:53 181 13.3
2014-Aug-31 02:47 193 13.3
2014-Aug-31 02:41 193 13.3
2014-Aug-31 02:35 187 13.3
2014-Aug-31 02:29 198 13.3
2014-Aug-31 02:23 195 13.3
2014-Aug-31 02:17 176 13.3
2014-Aug-31 02:05 190 0 gusting 5 13.9
2014-Aug-31 01:59 175 2 gusting 5 13.9
2014-Aug-31 01:53 193 13.9
2014-Aug-31 01:47 205 13.9
2014-Aug-31 01:41 296 13.9
2014-Aug-31 01:35 233 14.4
2014-Aug-31 01:29 200 14.4
2014-Aug-31 01:23 190 0 gusting 3 14.4
2014-Aug-31 01:17 186 14.4
2014-Aug-31 01:11 181 0 gusting 2 14.4
2014-Aug-31 01:05 001 14.4
2014-Aug-31 00:59 265 15.0
2014-Aug-31 00:53 201 15.0
2014-Aug-31 00:41 238 15.6
2014-Aug-31 00:29 261 1 gusting 2 15.0
2014-Aug-31 00:23 215 15.6
2014-Aug-31 00:17 196 15.6
2014-Aug-31 00:11 235 3 gusting 6 15.6
2014-Aug-31 00:05 232 16.1
2014-Aug-30 23:59 204 16.1
2014-Aug-30 23:53 191 2 gusting 3 16.1
2014-Aug-30 23:47 190 1 gusting 3 16.1
2014-Aug-30 23:41 199 2 gusting 5 16.1
2014-Aug-30 23:35 206 1 gusting 5 16.1
2014-Aug-30 23:29 209 16.7
2014-Aug-30 23:23 226 16.7
2014-Aug-30 23:11 188 2 gusting 5 16.7
2014-Aug-30 23:05 190 2 gusting 3 16.7
2014-Aug-30 22:59 201 2 gusting 3 16.7
2014-Aug-30 22:53 208 17.2
2014-Aug-30 22:47 208 17.2
2014-Aug-30 22:41 203 0 gusting 3 17.2
2014-Aug-30 22:35 202 0 gusting 4 17.2
2014-Aug-30 22:29 199 2 gusting 4 17.8
2014-Aug-30 22:17 195 1 gusting 4 17.8
2014-Aug-30 22:11 213 1 gusting 4 18.3
2014-Aug-30 22:05 216 2 gusting 4 18.3
2014-Aug-30 21:59 198 1 gusting 4 18.3
2014-Aug-30 21:53 213 0 gusting 2 18.9
2014-Aug-30 21:47 205 19.4
2014-Aug-30 21:41 196 2 gusting 4 19.4
2014-Aug-30 21:35 200 0 gusting 3 20.0
2014-Aug-30 21:29 211 20.6
2014-Aug-30 21:17 205 1 gusting 4 20.6
2014-Aug-30 21:12 001 22.2
2014-Aug-30 21:11 215 1 gusting 4 21.1
2014-Aug-30 21:05 209 0 gusting 4 21.7
2014-Aug-30 20:59 181 1 gusting 2 21.7
2014-Aug-30 20:47 037 22.2
2014-Aug-30 20:41 001 22.2
2014-Aug-30 20:35 002 22.2
2014-Aug-30 20:29 015 22.8
2014-Aug-30 20:17 061 23.3
2014-Aug-30 20:11 144 23.3
2014-Aug-30 20:05 170 23.3
2014-Aug-30 19:47 118 24.4
2014-Aug-30 19:41 157 24.4
2014-Aug-30 19:35 158 1 gusting 3 24.4
2014-Aug-30 19:23 152 0 gusting 5 25.0
2014-Aug-30 19:11 143 0 gusting 6 25.6
2014-Aug-30 18:59 163 3 gusting 7 26.1
2014-Aug-30 18:53 155 2 gusting 7 26.1
2014-Aug-30 18:41 139 2 gusting 4 26.7
2014-Aug-30 18:35 125 0 gusting 4 27.2
2014-Aug-30 18:23 088 1 gusting 4 28.3
2014-Aug-30 18:17 084 28.3
2014-Aug-30 18:11 090 2 gusting 4 28.9
2014-Aug-30 18:05 083 0 gusting 5 28.9
2014-Aug-30 17:59 079 2 gusting 4 28.9
2014-Aug-30 17:47 025 2 gusting 5 28.9
2014-Aug-30 17:41 024 2 gusting 6 28.9
2014-Aug-30 17:35 003 4 gusting 8 28.9
2014-Aug-30 17:29 006 5 gusting 8 29.4
2014-Aug-30 17:23 007 5 gusting 9 29.4
2014-Aug-30 17:17 354 5 gusting 9 29.4
2014-Aug-30 17:11 358 3 gusting 8 29.4
2014-Aug-30 17:05 356 6 gusting 8 29.4
2014-Aug-30 16:59 355 2 gusting 10 29.4
2014-Aug-30 16:47 001 7 gusting 12 30.0
2014-Aug-30 16:35 359 6 gusting 11 30.0
2014-Aug-30 16:29 354 5 gusting 11 30.6
2014-Aug-30 16:23 351 3 gusting 5 31.1
2014-Aug-30 16:17 357 2 gusting 4 31.1
2014-Aug-30 16:11 003 0 gusting 4 31.1
2014-Aug-30 15:53 069 31.1
2014-Aug-30 15:47 114 0 gusting 4 31.1
2014-Aug-30 15:41 120 2 gusting 4 30.6
2014-Aug-30 15:35 140 0 gusting 3 30.6
2014-Aug-30 15:23 020 0 gusting 7 30.6
2014-Aug-30 15:17 338 2 gusting 7 30.0
2014-Aug-30 15:11 276 0 gusting 3 30.6
2014-Aug-30 14:59 007 5 gusting 7 30.0
2014-Aug-30 14:53 347 5 gusting 7 30.0
2014-Aug-30 14:47 343 0 gusting 5 30.0
2014-Aug-30 14:41 293 0 gusting 5 30.6
2014-Aug-30 14:29 358 1 gusting 5 29.4
2014-Aug-30 14:23 001 1 gusting 5 29.4
2014-Aug-30 14:11 291 29.4
2014-Aug-30 14:05 322 1 gusting 3 28.9